Location: Pegasus Observatory
(35.6569°N, 82.5850°W)
Time: 18:37:34
(UTC-05:00)

Envisat - Visible Passes

Search period start: 26 January 2020 00:00
Search period end: 05 February 2020 00:00
Orbit: 764 x 766 km, 98.1° (Epoch: 26 January)

Date Brightness Start Highest point End Pass type
(mag) Time Alt. Az. Time Alt. Az. Time Alt. Az.
26 Jan 3.2 18:30:36 10° S 18:35:39 79° WSW 18:40:46 10° NNW visible
27 Jan 4.3 06:42:38 10° NNE 06:47:29 45° E 06:52:19 10° S visible
27 Jan 5.9 19:34:44 10° SW 19:38:10 18° W 19:41:37 10° NW visible
28 Jan 5.9 06:06:56 10° NE 06:10:31 19° E 06:14:05 10° SE visible
28 Jan 4.4 18:56:23 10° S 19:01:10 42° W 19:06:00 10° NNW visible
29 Jan 3.0 18:19:19 10° SSE 18:24:22 80° ENE 18:29:28 10° N visible
30 Jan 4.9 06:31:32 10° NNE 06:36:10 35° E 06:40:45 10° SSE visible
30 Jan 5.5 19:22:47 10° SSW 19:26:47 23° W 19:30:48 10° NW visible
31 Jan 6.2 05:56:20 10° ENE 05:59:07 15° E 06:01:55 10° SE visible
31 Jan 3.8 18:44:54 10° S 18:49:51 55° W 18:54:51 10° NNW visible
01 Feb 3.6 06:56:39 10° NNE 07:01:43 65° E 07:06:44 10° S visible
01 Feb 6.3 19:50:24 10° WSW 19:52:30 12° W 19:54:36 10° WNW visible
02 Feb 5.3 06:20:31 10° NE 06:24:49 27° E 06:29:05 10° SSE visible
02 Feb 5.1 19:11:01 10° SSW 19:15:26 30° W 19:19:52 10° NW visible
03 Feb 6.5 05:46:20 10° ENE 05:47:43 11° E 05:49:06 10° ESE visible
03 Feb 3.3 18:33:30 10° S 18:38:33 72° W 18:43:38 10° NNW visible
04 Feb 4.1 06:45:28 10° NNE 06:50:24 50° E 06:55:18 10° S visible
04 Feb 6.0 19:37:58 10° SW 19:41:06 16° W 19:44:15 10° NW visible
